�������l�o���
Date,Time,MP-1(��Sv/h),MP-2(��Sv/h),MP-3(��Sv/h),MP-4(��Sv/h),MP-5(��Sv/h),MP-6(��Sv/h),MP-7(��Sv/h),MP-8(��Sv/h),����,����(m/s),���J
2021/02/05,00:00,0.662,0.956,0.605,1.212,0.851,0.376,0.671,0.632,�k��,7.6,��
2021/02/05,00:10,0.664,0.956,0.607,1.211,0.852,0.376,0.671,0.632,���k��,7.3,��
2021/02/05,00:20,0.662,0.955,0.608,1.208,0.853,0.374,0.671,0.632,�k��,6.7,��
2021/02/05,00:30,0.661,0.955,0.607,1.210,0.852,0.376,0.672,0.630,�k��,5.6,��
2021/02/05,00:40,0.661,0.956,0.605,1.211,0.850,0.376,0.671,0.632,���k��,5.2,��
2021/02/05,00:50,0.662,0.956,0.607,1.210,0.854,0.375,0.669,0.633,���k��,6.1,��
2021/02/05,01:00,0.664,0.955,0.608,1.212,0.852,0.378,0.670,0.632,���k��,3.7,��
2021/02/05,01:10,0.663,0.958,0.607,1.211,0.852,0.380,0.670,0.631,���k��,3.4,��
2021/02/05,01:20,0.663,0.958,0.607,1.209,0.852,0.378,0.671,0.632,��,2.5,��
2021/02/05,01:30,0.663,0.955,0.608,1.210,0.854,0.378,0.670,0.631,���쐼,2.2,��
2021/02/05,01:40,0.663,0.956,0.607,1.210,0.853,0.378,0.669,0.632,�쐼,2.0,��
2021/02/05,01:50,0.663,0.956,0.609,1.210,0.851,0.379,0.672,0.631,���쐼,3.4,��
2021/02/05,02:00,0.664,0.957,0.608,1.209,0.851,0.378,0.670,0.632,�쐼,3.6,��
2021/02/05,02:10,0.661,0.956,0.608,1.209,0.851,0.378,0.669,0.631,�쐼,3.4,��
2021/02/05,02:20,0.663,0.958,0.609,1.211,0.850,0.377,0.670,0.631,�쐼,2.9,��
2021/02/05,02:30,0.662,0.957,0.608,1.211,0.852,0.379,0.669,0.631,���쐼,1.5,��
2021/02/05,02:40,0.662,0.956,0.609,1.211,0.854,0.378,0.669,0.631,��쐼,1.9,��
2021/02/05,02:50,0.663,0.958,0.609,1.210,0.852,0.378,0.670,0.632,�쐼,2.5,��
2021/02/05,03:00,0.663,0.957,0.608,1.208,0.850,0.377,0.669,0.630,�쐼,1.5,��
2021/02/05,03:10,0.663,0.959,0.607,1.211,0.853,0.377,0.670,0.632,�쐼,0.8,��
2021/02/05,03:20,0.663,0.955,0.607,1.211,0.853,0.378,0.670,0.630,��쐼,0.9,��
2021/02/05,03:30,0.665,0.958,0.609,1.211,0.853,0.379,0.668,0.633,��,0.9,��
2021/02/05,03:40,0.664,0.956,0.607,1.213,0.852,0.376,0.669,0.631,�k��,0.9,��
2021/02/05,03:50,0.664,0.956,0.608,1.211,0.852,0.378,0.670,0.631,�k��,2.6,��
2021/02/05,04:00,0.664,0.955,0.607,1.211,0.851,0.378,0.669,0.631,�k��,4.2,��
2021/02/05,04:10,0.663,0.956,0.607,1.212,0.853,0.378,0.670,0.631,�k�k��,6.0,��
2021/02/05,04:20,0.662,0.958,0.607,1.210,0.850,0.377,0.672,0.631,�k��,6.8,��
2021/02/05,04:30,0.661,0.958,0.607,1.211,0.851,0.377,0.670,0.630,�k��,6.4,��
2021/02/05,04:40,0.663,0.956,0.606,1.210,0.851,0.379,0.669,0.632,�k��,5.0,��
2021/02/05,04:50,0.661,0.955,0.608,1.210,0.852,0.377,0.671,0.632,�k��,6.4,��
2021/02/05,05:00,0.665,0.956,0.608,1.210,0.851,0.377,0.670,0.631,�k��,5.8,��
2021/02/05,05:10,0.663,0.955,0.606,1.210,0.850,0.377,0.671,0.631,�k��,7.2,��
2021/02/05,05:20,0.663,0.956,0.606,1.210,0.852,0.378,0.671,0.631,���k��,8.1,��
2021/02/05,05:30,0.664,0.956,0.606,1.208,0.851,0.377,0.670,0.631,�k��,6.3,��
2021/02/05,05:40,0.663,0.957,0.607,1.210,0.849,0.377,0.669,0.631,�k��,5.0,��
2021/02/05,05:50,0.663,0.954,0.606,1.210,0.849,0.377,0.669,0.632,�k��,7.2,��
2021/02/05,06:00,0.663,0.953,0.607,1.210,0.850,0.377,0.670,0.631,�k��,6.6,��
2021/02/05,06:10,0.664,0.955,0.608,1.208,0.850,0.377,0.668,0.631,�k��,7.8,��
2021/02/05,06:20,0.664,0.953,0.606,1.209,0.852,0.378,0.669,0.630,�k��,5.0,��
2021/02/05,06:30,0.664,0.955,0.606,1.210,0.851,0.378,0.669,0.631,�k��,5.1,��
2021/02/05,06:40,0.662,0.955,0.606,1.209,0.849,0.378,0.668,0.629,�k�k��,3.3,��
2021/02/05,06:50,0.662,0.953,0.607,1.209,0.850,0.378,0.670,0.631,�k�k��,3.0,��
2021/02/05,07:00,0.663,0.956,0.607,1.208,0.851,0.378,0.669,0.631,�k��,1.9,��
2021/02/05,07:10,0.662,0.956,0.606,1.208,0.851,0.378,0.671,0.631,�k�k��,3.8,��
2021/02/05,07:20,0.663,0.956,0.608,1.211,0.851,0.377,0.668,0.630,�k,3.1,��
2021/02/05,07:30,0.664,0.955,0.608,1.213,0.851,0.379,0.670,0.631,�k,2.5,��
2021/02/05,07:40,0.664,0.957,0.608,1.211,0.851,0.378,0.669,0.632,�k,2.0,��
2021/02/05,07:50,0.662,0.955,0.609,1.208,0.851,0.376,0.671,0.632,�k,1.5,��
2021/02/05,08:00,0.664,0.956,0.609,1.211,0.851,0.377,0.670,0.631,�k�k��,1.2,��
2021/02/05,08:10,0.664,0.956,0.610,1.210,0.849,0.377,0.670,0.630,�k�k��,2.6,��
2021/02/05,08:20,0.666,0.956,0.609,1.209,0.850,0.377,0.671,0.632,�k�k��,2.6,��
2021/02/05,08:30,0.663,0.956,0.607,1.208,0.850,0.378,0.670,0.631,�k,3.5,��
2021/02/05,08:40,0.664,0.953,0.609,1.210,0.850,0.377,0.671,0.631,�k,4.1,��
2021/02/05,08:50,0.664,0.954,0.609,1.207,0.849,0.377,0.669,0.632,�k�k��,2.3,��
2021/02/05,09:00,0.668,0.955,0.610,1.211,0.851,0.378,0.670,0.631,-,CALM,��
2021/02/05,09:10,0.665,0.954,0.608,1.211,0.853,0.378,0.671,0.630,��쓌,2.0,��
2021/02/05,09:20,0.664,0.954,0.609,1.209,0.853,0.377,0.671,0.631,�쓌,1.4,��
2021/02/05,09:30,0.665,0.954,0.610,1.207,0.852,0.378,0.671,0.630,��쓌,3.0,��
2021/02/05,09:40,0.664,0.956,0.609,1.210,0.852,0.376,0.669,0.631,���쓌,3.3,��
2021/02/05,09:50,0.664,0.954,0.608,1.210,0.851,0.377,0.669,0.633,���쓌,3.9,��
2021/02/05,10:00,0.663,0.956,0.609,1.209,0.852,0.378,0.670,0.631,���쓌,4.9,��
2021/02/05,10:10,0.661,0.953,0.609,1.207,0.853,0.378,0.669,0.631,��,4.8,��
2021/02/05,10:20,0.662,0.954,0.608,1.209,0.852,0.377,0.671,0.631,���쓌,6.4,��
2021/02/05,10:30,0.663,0.955,0.609,1.212,0.853,0.379,0.670,0.631,���쓌,7.4,��
2021/02/05,10:40,0.658,0.954,0.610,1.210,0.853,0.379,0.669,0.630,���쓌,6.4,��
2021/02/05,10:50,0.660,0.954,0.607,1.209,0.853,0.378,0.671,0.631,���쓌,7.6,��
2021/02/05,11:00,0.661,0.955,0.609,1.210,0.854,0.378,0.670,0.631,��,7.8,��
2021/02/05,11:10,0.662,0.955,0.610,1.212,0.854,0.378,0.668,0.630,���쓌,8.2,��
2021/02/05,11:20,0.661,0.956,0.609,1.210,0.853,0.379,0.668,0.631,���쓌,5.2,��
2021/02/05,11:30,0.661,0.955,0.609,1.213,0.854,0.378,0.669,0.633,���쓌,3.0,��
2021/02/05,11:40,0.665,0.957,0.609,1.211,0.856,0.379,0.671,0.630,���쓌,2.5,��
2021/02/05,11:50,0.665,0.959,0.611,1.211,0.854,0.377,0.668,0.632,���쓌,4.1,��
2021/02/05,12:00,0.665,0.957,0.611,1.214,0.854,0.380,0.669,0.633,��쓌,2.5,��
2021/02/05,12:10,0.665,0.957,0.611,1.212,0.856,0.379,0.669,0.633,��,2.6,��
2021/02/05,12:20,0.667,0.961,0.612,1.212,0.855,0.379,0.670,0.633,��,8.1,��
2021/02/05,12:30,0.667,0.960,0.610,1.213,0.854,0.378,0.669,0.632,��,8.8,��
2021/02/05,12:40,0.666,0.961,0.612,1.213,0.855,0.380,0.669,0.634,��,10.0,��
2021/02/05,12:50,0.666,0.960,0.611,1.212,0.856,0.379,0.671,0.633,��,10.9,��
2021/02/05,13:00,0.668,0.958,0.611,1.211,0.854,0.379,0.670,0.633,��,8.7,��
2021/02/05,13:10,0.668,0.956,0.611,1.213,0.853,0.379,0.669,0.631,��,9.2,��
2021/02/05,13:20,0.666,0.956,0.611,1.214,0.855,0.378,0.670,0.632,��,12.7,��
2021/02/05,13:30,0.666,0.956,0.610,1.210,0.855,0.380,0.669,0.635,���쐼,11.8,��
2021/02/05,13:40,0.667,0.956,0.611,1.213,0.852,0.378,0.670,0.632,���쐼,11.3,��
2021/02/05,13:50,0.665,0.957,0.611,1.214,0.853,0.379,0.670,0.630,��,10.8,��
2021/02/05,14:00,0.665,0.956,0.611,1.211,0.853,0.377,0.669,0.630,��,9.1,��
2021/02/05,14:10,0.667,0.955,0.610,1.213,0.852,0.379,0.671,0.632,��,8.3,��
2021/02/05,14:20,0.664,0.957,0.610,1.212,0.854,0.380,0.670,0.631,��,7.2,��
2021/02/05,14:30,0.667,0.957,0.610,1.213,0.855,0.380,0.671,0.629,��,9.5,��
2021/02/05,14:40,0.669,0.957,0.612,1.214,0.855,0.378,0.671,0.629,��,6.4,��
2021/02/05,14:50,0.667,0.956,0.612,1.213,0.855,0.379,0.672,0.630,��,7.6,��
2021/02/05,15:00,0.667,0.959,0.608,1.216,0.856,0.380,0.672,0.632,��,6.1,��
2021/02/05,15:10,0.668,0.958,0.611,1.213,0.855,0.379,0.673,0.632,��,7.9,��
2021/02/05,15:20,0.666,0.955,0.611,1.213,0.856,0.378,0.673,0.634,��,7.1,��
2021/02/05,15:30,0.668,0.957,0.611,1.214,0.854,0.378,0.673,0.632,���쐼,7.0,��
2021/02/05,15:40,0.668,0.959,0.611,1.214,0.855,0.379,0.674,0.633,���쐼,8.0,��
2021/02/05,15:50,0.668,0.960,0.610,1.214,0.855,0.379,0.673,0.635,��,7.1,��
2021/02/05,16:00,0.667,0.960,0.612,1.213,0.855,0.380,0.672,0.632,���쐼,8.3,��
2021/02/05,16:10,0.668,0.961,0.611,1.214,0.857,0.380,0.674,0.633,��,7.6,��
2021/02/05,16:20,0.666,0.959,0.612,1.212,0.856,0.380,0.673,0.633,���쐼,8.4,��
2021/02/05,16:30,0.666,0.958,0.610,1.212,0.857,0.379,0.674,0.632,��,6.9,��
2021/02/05,16:40,0.669,0.960,0.612,1.214,0.858,0.380,0.673,0.632,���쐼,5.2,��
2021/02/05,16:50,0.668,0.959,0.611,1.213,0.856,0.380,0.673,0.631,���쐼,3.6,��
2021/02/05,17:00,0.667,0.959,0.611,1.216,0.857,0.379,0.671,0.632,�쐼,4.7,��
2021/02/05,17:10,0.668,0.959,0.612,1.213,0.857,0.380,0.671,0.632,���쐼,2.3,��
2021/02/05,17:20,0.666,0.959,0.611,1.214,0.853,0.380,0.674,0.632,�쐼,3.7,��
2021/02/05,17:30,0.665,0.958,0.612,1.213,0.856,0.379,0.674,0.633,���쐼,2.8,��
2021/02/05,17:40,0.666,0.959,0.612,1.213,0.855,0.379,0.672,0.633,�쐼,2.6,��
2021/02/05,17:50,0.667,0.959,0.611,1.214,0.855,0.380,0.673,0.632,��쐼,2.6,��
2021/02/05,18:00,0.668,0.959,0.610,1.214,0.856,0.380,0.673,0.632,��,3.5,��
2021/02/05,18:10,0.668,0.959,0.611,1.214,0.856,0.379,0.672,0.631,��쐼,1.5,��
2021/02/05,18:20,0.666,0.960,0.610,1.213,0.857,0.380,0.671,0.632,�쐼,2.2,��
2021/02/05,18:30,0.667,0.959,0.611,1.214,0.856,0.381,0.673,0.632,�쐼,3.7,��
2021/02/05,18:40,0.667,0.957,0.613,1.213,0.857,0.380,0.673,0.632,�쐼,3.8,��
2021/02/05,18:50,0.665,0.958,0.610,1.214,0.855,0.379,0.672,0.631,�쐼,3.8,��
2021/02/05,19:00,0.666,0.960,0.611,1.213,0.857,0.379,0.673,0.633,��쐼,2.6,��
2021/02/05,19:10,0.667,0.959,0.611,1.211,0.855,0.379,0.673,0.633,��,3.1,��
2021/02/05,19:20,0.667,0.959,0.611,1.213,0.856,0.378,0.672,0.633,��쐼,4.7,��
2021/02/05,19:30,0.665,0.958,0.610,1.212,0.857,0.380,0.672,0.632,��쐼,4.2,��
2021/02/05,19:40,0.667,0.961,0.612,1.213,0.856,0.380,0.670,0.631,��,4.4,��
2021/02/05,19:50,0.666,0.962,0.610,1.211,0.858,0.378,0.671,0.633,��,5.2,��
2021/02/05,20:00,0.666,0.957,0.612,1.212,0.858,0.377,0.671,0.631,��쐼,5.4,��
2021/02/05,20:10,0.667,0.960,0.610,1.213,0.853,0.380,0.670,0.633,�쐼,4.9,��
2021/02/05,20:20,0.666,0.958,0.609,1.214,0.857,0.378,0.670,0.630,��쐼,4.8,��
2021/02/05,20:30,0.668,0.960,0.610,1.213,0.856,0.379,0.673,0.631,�쐼,6.4,��
2021/02/05,20:40,0.666,0.963,0.612,1.210,0.855,0.380,0.672,0.632,�쐼,5.8,��
2021/02/05,20:50,0.668,0.958,0.611,1.211,0.854,0.378,0.672,0.631,�쐼,7.3,��
2021/02/05,21:00,0.665,0.959,0.610,1.212,0.856,0.379,0.671,0.632,�쐼,7.0,��
2021/02/05,21:10,0.666,0.959,0.612,1.210,0.855,0.379,0.672,0.631,�쐼,6.7,��
2021/02/05,21:20,0.668,0.959,0.610,1.214,0.856,0.379,0.670,0.630,���쐼,6.5,��
2021/02/05,21:30,0.665,0.960,0.611,1.215,0.854,0.380,0.671,0.632,���쐼,6.5,��
2021/02/05,21:40,0.666,0.960,0.610,1.213,0.856,0.379,0.670,0.632,���쐼,6.1,��
2021/02/05,21:50,0.666,0.960,0.611,1.209,0.855,0.379,0.671,0.634,���쐼,5.1,��
2021/02/05,22:00,0.667,0.961,0.612,1.212,0.854,0.381,0.670,0.632,���쐼,5.1,��
2021/02/05,22:10,0.668,0.960,0.610,1.212,0.857,0.378,0.670,0.631,���쐼,5.1,��
2021/02/05,22:20,0.668,0.961,0.612,1.215,0.856,0.380,0.671,0.633,���쐼,5.7,��
2021/02/05,22:30,0.669,0.960,0.610,1.213,0.856,0.379,0.671,0.632,���쐼,5.3,��
2021/02/05,22:40,0.667,0.961,0.610,1.213,0.856,0.379,0.672,0.632,���쐼,5.4,��
2021/02/05,22:50,0.670,0.959,0.609,1.214,0.855,0.381,0.672,0.632,���쐼,5.5,��
2021/02/05,23:00,0.666,0.959,0.611,1.211,0.856,0.380,0.671,0.633,���쐼,5.5,��
2021/02/05,23:10,0.666,0.959,0.612,1.214,0.855,0.380,0.672,0.632,���쐼,4.6,��
2021/02/05,23:20,0.667,0.960,0.610,1.213,0.856,0.380,0.671,0.632,�쐼,3.3,��
2021/02/05,23:30,0.669,0.959,0.612,1.212,0.857,0.380,0.671,0.631,���쐼,3.5,��
2021/02/05,23:40,0.666,0.959,0.611,1.215,0.856,0.378,0.670,0.632,�쐼,2.8,��
2021/02/05,23:50,0.667,0.958,0.611,1.212,0.856,0.381,0.671,0.631,�쐼,4.0,��
